Flag for Russia Weather past 2 weeks in Surgut, Russia

39 °F


Feels Like: 32 °F
Forecast: 32 / 41 °F
Wind: 13 mph from South

Location: Surgut Airport

Current Time: Oct 10, 2015 at 4:09:09 PM

Latest Report: Oct 10, 2015 at 3:30 PM

Visibility: 4 mi

Pressure: 30.01 "Hg

Humidity: 45%

Dew point: 19 °F

Location of SurgutLocation

Historic Weather in Surgut — Graph


Surgut temperature yesterday

Maximum temperature yesterday: 45 °F (at 4:30 PM)
Minimum temperature yesterday: 34 °F (at 12:00 AM)
Average temperature yesterday: 38 °F

Past Weeks' High & Low Weather Summary

High52 °F (Sep 27, 1:00 PM)100% (Sep 27, 1:30 AM)30.45 "Hg (Sep 27, 1:30 AM)
Low27 °F (Sep 26, 1:00 AM)39% (Sep 25, 3:00 PM)28.94 "Hg (Oct 4, 2:00 AM)
Average35 °F86%29.81 "Hg
* Reported Sep 25 3:00 PM — Oct 10 3:00 PM, Surgut, Weather by CustomWeather, © 2015

Note: Actual official high and low records may vary slightly from our data, if they occured in-between our weather recording intervals... More about our weather records


Surgut weather history for previous 24 hours

Time TempWeatherWind HumidityBarometerVisibility
3:00 PM
Sat, Oct 10
39 °FClear.13 mph45%30.01 "Hg4 mi
2:30 PM39 °FClear.15 mph45%30.01 "Hg4 mi
2:00 PM39 °FClear.15 mph45%30.01 "Hg4 mi
1:30 PM37 °FClear.13 mph48%29.98 "Hg4 mi
1:00 PM37 °FClear.17 mph52%29.98 "Hg4 mi
12:30 PM37 °FClear.17 mph52%29.98 "Hg4 mi
12:00 PM36 °FClear.15 mph56%29.98 "Hg4 mi
11:30 AM36 °FClear.13 mph56%29.98 "Hg4 mi
11:00 AM34 °FClear.15 mph60%29.95 "Hg4 mi
10:30 AM34 °FClear.15 mph60%29.95 "Hg4 mi
10:00 AM34 °FClear.13 mph60%29.95 "Hg4 mi
9:30 AM32 °FClear.15 mph64%29.92 "Hg4 mi
9:00 AM32 °FClear.15 mph64%29.92 "Hg4 mi
8:30 AM30 °FClear.13 mph69%29.92 "Hg4 mi
8:00 AM30 °FClear.15 mph69%29.89 "Hg4 mi
7:30 AM30 °FClear.13 mph69%29.86 "Hg4 mi
7:00 AM30 °FClear.13 mph69%29.86 "Hg4 mi
6:30 AM30 °FClear.10 mph69%29.86 "Hg4 mi
6:00 AM30 °FClear.10 mph69%29.83 "Hg4 mi
5:30 AM30 °FClear.10 mph75%29.83 "Hg4 mi
5:00 AM30 °FClear.13 mph75%29.83 "Hg4 mi
4:30 AM30 °FClear.13 mph75%29.80 "Hg4 mi
4:00 AM30 °FClear.10 mph75%29.80 "Hg4 mi
3:30 AM30 °FClear.13 mph75%29.77 "Hg4 mi
3:00 AM30 °FClear.8 mph75%29.77 "Hg4 mi
2:00 AM32 °FClear.10 mph75%29.74 "Hg4 mi
1:30 AM32 °FClear.10 mph75%29.74 "Hg4 mi
1:00 AM32 °FClear.10 mph75%29.71 "Hg4 mi
12:30 AM32 °FClear.10 mph75%29.71 "Hg4 mi
12:00 AM32 °FClear.13 mph75%29.68 "Hg4 mi
11:30 PM
Fri, Oct 9
34 °FClear.13 mph70%29.68 "Hg4 mi
11:00 PM34 °FClear.13 mph75%29.65 "Hg4 mi
10:30 PM34 °FClear.10 mph81%29.65 "Hg4 mi
10:00 PM34 °FClear.13 mph81%29.65 "Hg4 mi
9:30 PM34 °FPassing clouds.20 mph81%29.62 "Hg4 mi
9:00 PM36 °FSprinkles. Partly cloudy.22 mph81%29.59 "Hg4 mi
8:30 PM36 °FSprinkles. Passing clouds.26 mph93%29.56 "Hg3 mi
7:30 PM43 °FSprinkles. Fog.15 mph100%29.47 "Hg3 mi
7:00 PM45 °FSprinkles. Fog.8 mph100%29.45 "Hg1 mi
6:30 PM45 °FSprinkles. Fog.8 mph93%29.45 "Hg2 mi
6:00 PM45 °FFog.6 mph93%29.42 "Hg2 mi
5:30 PM45 °FSprinkles. Fog.3 mph93%29.42 "Hg3 mi
5:00 PM45 °FScattered clouds.6 mph87%29.42 "Hg4 mi
4:30 PM45 °FScattered clouds.8 mph87%29.42 "Hg4 mi
4:00 PM43 °FClear.8 mph93%29.39 "Hg4 mi
Weather by CustomWeather, © 2015

See weather overviewHow to use our weather pages